Flag for Germany Weather past 2 weeks in Warburg, North Rhine-Westphalia, Germany

Now
63 °F

Fog.


Feels Like: 63 °F
Forecast: 54 / 72 °F
Wind: 5 mph from East

Location: Bad Lippspringe

Current Time: Sep 16, 2014 at 5:11:47 AM

Latest Report: Sep 16, 2014 at 4:00 AM


Visibility: 3 mi

Pressure: 30.02 "Hg

Humidity: 85%

Dew point: 58 °F

Location of WarburgLocation

Historic Weather in Warburg — Graph

°F

Warburg temperature yesterday

Maximum temperature yesterday: 69 °F (at 4:00 PM)
Minimum temperature yesterday: 53 °F (at 12:00 AM)
Average temperature yesterday: 62 °F

Past Weeks' High & Low Weather Summary

 TemperatureHumidityPressure
High79 °F (Sep 6, 3:00 PM)100% (Sep 3, 3:00 AM)30.27 "Hg (Sep 3, 3:00 AM)
Low44 °F (Sep 12, 5:00 AM)45% (Sep 6, 3:00 PM)29.85 "Hg (Sep 6, 6:00 PM)
Average60 °F84%30.09 "Hg
* Reported Sep 1 3:00 AM — Sep 16 3:00 AM, Warburg, Weather by CustomWeather, © 2014

Note: Actual official high and low records may vary slightly from our data, if they occured in-between our weather recording intervals... More about our weather records

Advertising

Warburg weather history for previous 24 hours

 ConditionsComfort  
Time TempWeatherWind HumidityBarometerVisibility
3:00 AM
Sep 16
63 °FFog.5 mph84%30.02 "Hg3 mi
2:00 AM64 °FFog.5 mph84%30.03 "Hg3 mi
1:00 AM64 °FFog.3 mph83%30.03 "Hg3 mi
12:00 AM64 °FFog.5 mph82%30.04 "Hg3 mi
11:00 PM
Sep 15
65 °FOvercast.5 mph79%30.04 "Hg4 mi
10:00 PM65 °FFog.2 mph80%30.03 "Hg4 mi
9:00 PM64 °FOvercast.2 mph81%30.03 "Hg6 mi
8:00 PM65 °FOvercast.2 mph83%30.03 "Hg6 mi
7:00 PM68 °FOvercast.1 mph74%30.03 "Hg6 mi
6:00 PM69 °FOvercast.3 mph70%30.02 "Hg7 mi
4:00 PM69 °FOvercast.3 mph68%30.03 "Hg7 mi
3:00 PM69 °FOvercast.5 mph67%30.04 "Hg7 mi
2:00 PM68 °FOvercast.3 mph71%30.05 "Hg7 mi
1:00 PM68 °FOvercast.5 mph70%30.06 "Hg7 mi
12:00 PM68 °FScattered clouds.5 mph74%30.06 "Hg6 mi
11:00 AM64 °FOvercast.3 mph81%30.07 "Hg5 mi
10:00 AM62 °FOvercast.3 mph86%30.07 "Hg5 mi
9:00 AM62 °FFog.1 mph86%30.06 "Hg4 mi
8:00 AM60 °FFog.3 mph89%30.06 "Hg3 mi
7:00 AM60 °FFog.3 mph90%30.05 "Hg4 mi
6:00 AM58 °FFog.1 mph93%30.06 "Hg4 mi
5:00 AM57 °FOvercast.1 mph93%30.07 "Hg5 mi
Weather by CustomWeather, © 2014

See weather overviewHow to use our weather pages